IRIDIUM 116 (43072 NORAD) Tracking and Keplerian Element Data

This shows tracking and keplerian element data for the satellite.

Feedback or suggestion? Click here.




ElementValue
Catalog43072
NameIRIDIUM 116
Epoch Orbit31712
Epoch Day12.8059574
Epoch Year2024
RAAN332.4607
Inclination86.3984
Eccentricity0.0002171
Argument of Perigee88.6886
Mean Anonmoly271.4559
Mean Motion14.34220364
Decay Rate4.58E-06
L11 43072U 17083C 24012.80595740 .00000458 00000+0 15654-3 0 9992
L22 43072 86.3984 332.4607 0002171 88.6886 271.4559 14.34220364317122



Live tracking and technical data element details for IRIDIUM 116 (NORAD 43072). IRIDIUM 116 can be tracked NOW for your location showing map with azimuth and elevation plus other details from your city location.







IsCatalogInMostPopularTable: catalog: 43072, numindb: 721
Update: records affected: 1



GetName: 43072 IRIDIUM 116

Hit Count: updated at: Fri, 19 Apr 2024 12:18:43 GMT